Location: Unspecified
(42.0334°N, 93.6656°W)
Time: 06:10:42
(UTC-05:00)

Amateur Radio Satellites - All Passes

Search period start: 26 July 2014 05:40
Search period end: 27 July 2014 05:40
Location: Unspecified, 42.0334°N, 93.6656°W

Satellite Date Start Highest point End Downlink Frequencies (MHz)
Time Altitude Azimuth
TMSAT-1 26 Jul 05:47:38 05:51:36 22° 297° (WNW) 05:55:34 436.925 FM
OPAL 26 Jul 05:51:21 05:53:30 13° 268° (W) 05:55:39 ?
Lituanica SAT-1 26 Jul 05:57:16 05:59:18 88° 212° (SSW) 06:01:18 437.275 MHz beacon
Uosat F 26 Jul 06:02:03 06:07:00 59° 288° (WNW) 06:11:54 435.120 FM
Gurwin Techsat 1B 26 Jul 06:12:16 06:13:25 11° 304° (WNW) 06:14:35 435.225 FM
STRAND 1 26 Jul 06:27:18 06:31:58 36° 68° (ENE) 06:36:39 ?
MaSat-1 26 Jul 06:39:31 06:43:30 21° 49° (NE) 06:47:25 437.345 MHz
AO-7 26 Jul 06:45:01 06:53:04 55° 296° (WNW) 07:01:03 29.400 - 29.500 MHz
ISS 26 Jul 06:46:26 06:49:38 38° 27° (NNE) 06:52:49 145.800 FM
JAS-2 26 Jul 07:02:13 07:07:53 39° 95° (E) 07:12:58 435.800 - 435.900 CW/SSB, 435.910 FM
JAS-1B 26 Jul 07:04:24 07:07:43 12° 319° (NW) 07:10:58 435.800 - 435.900 CW/SSB
Hamsat 26 Jul 07:18:16 07:22:35 80° 102° (ESE) 07:26:54 145.90 MHz
KITSAT 1 26 Jul 07:26:18 07:34:21 75° 117° (ESE) 07:42:27 435.175 FM
PANSAT 26 Jul 07:44:10 07:44:28 10° 174° (S) 07:44:47 not established
STRAND 1 26 Jul 08:06:49 08:11:12 28° 265° (W) 08:15:36 ?
Saudisat 1A 26 Jul 08:07:57 08:11:26 23° 113° (ESE) 08:14:55 436.775 MHz
MaSat-1 26 Jul 08:16:05 08:21:23 67° 248° (WSW) 08:26:25 437.345 MHz
SO-67 26 Jul 08:19:26 08:22:53 62° 100° (E) 08:26:19 435.3500 MHz FM
ISS 26 Jul 08:23:18 08:26:17 29° 224° (SW) 08:29:14 145.800 FM
AO-7 26 Jul 08:40:34 08:44:00 13° 317° (NW) 08:47:26 29.400 - 29.500 MHz
JAS-2 26 Jul 08:47:30 08:52:49 31° 297° (WNW) 08:57:38 435.800 - 435.900 CW/SSB, 435.910 FM
PCSat 26 Jul 08:54:41 08:56:00 11° 33° (NNE) 08:57:19 145.825 MHz
Hamsat 26 Jul 08:57:11 08:57:54 10° 299° (WNW) 08:58:38 145.90 MHz
HO-68 26 Jul 09:00:39 09:05:10 18° 90° (E) 09:09:40 435.675 MHz FM
UKube-1 26 Jul 09:21:47 09:22:52 11° 90° (E) 09:23:57 145.840 MHz, 145.915 MHz
KITSAT 1 26 Jul 09:23:31 09:30:30 31° 319° (NW) 09:37:32 435.175 FM
Saudisat 1A 26 Jul 09:46:37 09:50:47 40° 310° (NW) 09:54:59 436.775 MHz
Sapphire 26 Jul 10:02:06 10:06:41 27° 48° (NE) 10:11:15 437.095 MHz 1200 baud AX-25 AFSK
Oscar 11 26 Jul 10:08:30 10:11:37 19° 93° (E) 10:14:43 145.825 FM, Beacon 2401.500 USB
PCSat 26 Jul 10:35:30 10:40:47 49° 55° (NE) 10:46:02 145.825 MHz
HO-68 26 Jul 10:46:29 10:53:40 84° 288° (WNW) 11:00:48 435.675 MHz FM
UKube-1 26 Jul 10:55:11 10:59:32 69° 286° (WNW) 11:03:51 145.840 MHz, 145.915 MHz
KITSAT 1 26 Jul 11:25:39 11:29:05 13° 348° (NNW) 11:32:32 435.175 FM
Oscar 11 26 Jul 11:43:55 11:47:56 38° 289° (WNW) 11:51:57 145.825 FM, Beacon 2401.500 USB
Sapphire 26 Jul 11:45:08 11:50:22 50° 246° (WSW) 11:55:34 437.095 MHz 1200 baud AX-25 AFSK
FUNcube-1 26 Jul 11:56:49 12:00:59 75° 285° (WNW) 12:05:10 145.950 - 145.970 MHz USB
PCSat 26 Jul 12:19:35 12:23:52 24° 253° (WSW) 12:28:07 145.825 MHz
JAS-1B 26 Jul 12:21:35 12:23:51 11° 39° (NE) 12:26:09 435.800 - 435.900 CW/SSB
HO-68 26 Jul 12:35:58 12:40:20 18° 307° (NW) 12:44:43 435.675 MHz FM
Oscar 19 26 Jul 13:04:25 13:08:42 28° 66° (ENE) 13:12:59 437.125 CW, 437.150 USB
KITSAT 1 26 Jul 13:24:28 13:28:47 15° 19° (NNE) 13:33:04 435.175 FM
Oscar 16 26 Jul 13:31:29 13:36:25 51° 71° (ENE) 13:41:22 437.025 USB, Beacon 2401.1428
AO-Echo 26 Jul 13:42:55 13:47:31 31° 67° (ENE) 13:52:09 ?
RS-15 26 Jul 13:45:47 13:56:09 46° 110° (ESE) 14:06:16 29.354 - 29.394 USB, Beacon 29.352 USB
ITAMSAT 1 26 Jul 13:46:47 13:51:24 33° 67° (ENE) 13:56:01 435.822 SSB
SO-50 26 Jul 13:51:21 13:55:47 75° 121° (ESE) 14:00:21 436.795 FM
TMSAT-1 26 Jul 13:52:30 13:54:16 12° 57° (ENE) 13:56:01 436.925 FM
JAS-1B 26 Jul 14:03:27 14:11:34 42° 61° (ENE) 14:20:30 435.800 - 435.900 CW/SSB
AO-27 26 Jul 14:04:45 14:09:45 48° 70° (ENE) 14:14:46 436.795 MHz FM
AO-7 26 Jul 14:06:11 14:08:52 12° 41° (NE) 14:11:32 29.400 - 29.500 MHz
Uribyol 2 26 Jul 14:06:28 14:11:30 52° 71° (ENE) 14:16:32 436.500 FM
Gurwin Techsat 1B 26 Jul 14:12:11 14:16:21 24° 64° (ENE) 14:20:31 435.225 FM
UOSAT-12 26 Jul 14:30:14 14:32:39 14° 108° (ESE) 14:35:06 437.025 FM, 437.400 FM
Oscar 19 26 Jul 14:43:11 14:47:53 37° 263° (W) 14:52:37 437.125 CW, 437.150 USB
Oscar 16 26 Jul 15:12:24 15:16:03 20° 268° (W) 15:19:43 437.025 USB, Beacon 2401.1428
KITSAT 1 26 Jul 15:19:17 15:26:49 40° 46° (NE) 15:34:18 435.175 FM
AO-Echo 26 Jul 15:21:22 15:26:10 35° 264° (W) 15:31:02 ?
ITAMSAT 1 26 Jul 15:26:13 15:30:51 32° 264° (W) 15:35:30 435.822 SSB
TMSAT-1 26 Jul 15:28:01 15:33:19 82° 75° (ENE) 15:38:39 436.925 FM
SO-50 26 Jul 15:33:55 15:36:54 17° 321° (NW) 15:39:56 436.795 FM
Uosat F 26 Jul 15:38:08 15:42:11 25° 65° (ENE) 15:46:15 435.120 FM
AO-27 26 Jul 15:45:34 15:49:30 21° 267° (W) 15:53:28 436.795 MHz FM
Uribyol 2 26 Jul 15:47:32 15:51:16 20° 267° (W) 15:55:00 436.500 FM
Gurwin Techsat 1B 26 Jul 15:50:56 15:56:01 46° 261° (W) 16:01:08 435.225 FM
AO-7 26 Jul 15:51:44 15:59:39 50° 63° (ENE) 16:07:36 29.400 - 29.500 MHz
JAS-1B 26 Jul 15:53:17 16:01:41 54° 263° (W) 16:11:14 435.800 - 435.900 CW/SSB
RS-15 26 Jul 15:57:29 16:08:17 55° 313° (NW) 16:19:00 29.354 - 29.394 USB, Beacon 29.352 USB
UOSAT-12 26 Jul 16:07:38 16:12:13 68° 305° (NW) 16:16:55 437.025 FM, 437.400 FM
OPAL 26 Jul 16:19:34 16:23:00 18° 94° (E) 16:26:26 ?
Saudisat 1A 26 Jul 16:33:42 16:37:20 24° 45° (NE) 16:40:56 436.775 MHz
TMSAT-1 26 Jul 17:11:43 17:13:52 12° 272° (W) 17:16:01 436.925 FM
JAS-2 26 Jul 17:13:52 17:19:50 25° 61° (ENE) 17:25:32 435.800 - 435.900 CW/SSB, 435.910 FM
KITSAT 1 26 Jul 17:14:40 17:22:26 53° 247° (WSW) 17:30:10 435.175 FM
Uosat F 26 Jul 17:16:00 17:20:44 41° 261° (W) 17:25:31 435.120 FM
AO-7 26 Jul 17:44:54 17:52:33 39° 262° (W) 18:00:16 29.400 - 29.500 MHz
UOSAT-12 26 Jul 17:51:06 17:53:16 13° 326° (NW) 17:55:28 437.025 FM, 437.400 FM
OPAL 26 Jul 17:57:15 18:02:11 56° 290° (WNW) 18:07:10 ?
Hamsat 26 Jul 18:11:59 18:16:04 58° 74° (ENE) 18:20:12 145.90 MHz
Saudisat 1A 26 Jul 18:12:54 18:17:05 42° 243° (WSW) 18:21:13 436.775 MHz
RS-15 26 Jul 18:15:28 18:23:50 24° 344° (NNW) 18:32:14 29.354 - 29.394 USB, Beacon 29.352 USB
STRAND 1 26 Jul 18:40:00 18:41:21 11° 88° (E) 18:42:42 ?
SO-67 26 Jul 18:53:34 18:56:17 22° 70° (ENE) 18:59:01 435.3500 MHz FM
JAS-2 26 Jul 18:56:21 19:04:12 76° 257° (WSW) 19:11:40 435.800 - 435.900 CW/SSB, 435.910 FM
HO-68 26 Jul 19:31:22 19:35:24 16° 52° (NE) 19:39:27 435.675 MHz FM
Hamsat 26 Jul 19:50:53 19:52:25 12° 270° (W) 19:53:58 145.90 MHz
STRAND 1 26 Jul 20:16:03 20:21:12 85° 284° (WNW) 20:26:17 ?
UKube-1 26 Jul 20:18:08 20:19:38 12° 60° (ENE) 20:21:08 145.840 MHz, 145.915 MHz
SO-67 26 Jul 20:26:37 20:29:17 21° 266° (W) 20:31:59 435.3500 MHz FM
RS-15 26 Jul 20:32:40 20:41:21 26° 20° (NNE) 20:50:08 29.354 - 29.394 USB, Beacon 29.352 USB
SO-50 26 Jul 20:43:23 20:45:53 14° 36° (NE) 20:48:25 436.795 FM
JAS-2 26 Jul 20:46:20 20:50:08 14° 274° (W) 20:53:54 435.800 - 435.900 CW/SSB, 435.910 FM
Oscar 11 26 Jul 21:04:38 21:07:24 17° 64° (ENE) 21:10:10 145.825 FM, Beacon 2401.500 USB
HO-68 26 Jul 21:14:49 21:21:58 77° 71° (ENE) 21:29:09 435.675 MHz FM
UKube-1 26 Jul 21:50:52 21:55:13 75° 257° (WSW) 21:59:37 145.840 MHz, 145.915 MHz
STRAND 1 26 Jul 21:57:52 21:59:34 12° 303° (WNW) 22:01:16 ?
MaSat-1 26 Jul 22:07:55 22:11:45 51° 110° (ESE) 22:16:14 437.345 MHz
SO-50 26 Jul 22:22:29 22:27:15 75° 56° (NE) 22:32:04 436.795 FM
Oscar 11 26 Jul 22:39:06 22:43:14 46° 261° (W) 22:47:23 145.825 FM, Beacon 2401.500 USB
RS-15 26 Jul 22:45:36 22:56:31 62° 50° (NE) 23:07:47 29.354 - 29.394 USB, Beacon 29.352 USB
FUNcube-1 26 Jul 22:53:25 22:57:47 89° 257° (WSW) 23:02:05 145.950 - 145.970 MHz USB
UOSAT-12 26 Jul 22:57:39 23:01:01 19° 40° (NE) 23:04:22 437.025 FM, 437.400 FM
HO-68 26 Jul 23:05:24 23:10:21 20° 269° (W) 23:15:21 435.675 MHz FM
Lituanica SAT-1 26 Jul 23:25:26 23:27:17 50° 142° (SE) 23:29:10 437.275 MHz beacon
MaSat-1 26 Jul 23:46:26 23:49:32 19° 313° (NW) 23:52:56 437.345 MHz
SO-50 27 Jul 00:04:55 00:07:14 14° 252° (WSW) 00:09:33 436.795 FM
UOSAT-12 27 Jul 00:36:57 00:41:41 72° 239° (WSW) 00:46:20 437.025 FM, 437.400 FM
Sapphire 27 Jul 00:45:37 00:49:25 20° 106° (ESE) 00:53:14 437.095 MHz 1200 baud AX-25 AFSK
RS-15 27 Jul 00:58:28 01:08:24 41° 252° (WSW) 01:18:42 29.354 - 29.394 USB, Beacon 29.352 USB
Lituanica SAT-1 27 Jul 00:58:43 00:59:37 12° 340° (NNW) 01:00:32 437.275 MHz beacon
ISS 27 Jul 01:05:16 01:08:36 71° 143° (SE) 01:11:57 145.800 FM
PCSat 27 Jul 01:17:46 01:22:48 41° 112° (ESE) 01:27:51 145.825 MHz
Oscar 16 27 Jul 01:43:49 01:47:12 17° 91° (E) 01:50:34 437.025 USB, Beacon 2401.1428
JAS-1B 27 Jul 01:54:09 01:55:54 11° 77° (ENE) 01:57:36 435.800 - 435.900 CW/SSB
ITAMSAT 1 27 Jul 02:02:27 02:02:57 10° 88° (E) 02:03:27 435.822 SSB
AO-27 27 Jul 02:18:39 02:21:51 16° 91° (E) 02:25:02 436.795 MHz FM
Uribyol 2 27 Jul 02:19:56 02:23:20 18° 92° (E) 02:26:42 436.500 FM
Sapphire 27 Jul 02:27:02 02:32:21 59° 303° (WNW) 02:37:44 437.095 MHz 1200 baud AX-25 AFSK
ISS 27 Jul 02:42:47 02:45:35 24° 341° (NNW) 02:48:24 145.800 FM
Oscar 19 27 Jul 02:53:44 02:58:56 76° 103° (ESE) 03:04:06 437.125 CW, 437.150 USB
PCSat 27 Jul 03:01:30 03:06:18 31° 310° (NW) 03:11:08 145.825 MHz
Oscar 16 27 Jul 03:21:51 03:26:55 58° 288° (WNW) 03:31:58 437.025 USB, Beacon 2401.1428
AO-Echo 27 Jul 03:27:57 03:33:05 78° 103° (ESE) 03:38:01 ?
OPAL 27 Jul 03:34:38 03:39:03 34° 66° (ENE) 03:43:29 ?
ITAMSAT 1 27 Jul 03:37:57 03:43:10 89° 105° (ESE) 03:48:20 435.822 SSB
JAS-1B 27 Jul 03:39:15 03:48:40 60° 99° (E) 03:56:43 435.800 - 435.900 CW/SSB
TMSAT-1 27 Jul 03:43:53 03:48:35 31° 96° (E) 03:53:14 436.925 FM
AO-7 27 Jul 03:55:44 03:59:09 13° 87° (E) 04:02:32 29.400 - 29.500 MHz
AO-27 27 Jul 03:56:39 04:01:47 62° 288° (WNW) 04:06:52 436.795 MHz FM
Uribyol 2 27 Jul 03:58:06 04:03:10 57° 288° (WNW) 04:08:12 436.500 FM
Lituanica SAT-1 27 Jul 04:04:45 04:05:19 11° 18° (NNE) 04:05:53 437.275 MHz beacon
Gurwin Techsat 1B 27 Jul 04:06:26 04:11:45 69° 102° (ESE) 04:17:02 435.225 FM
Sapphire 27 Jul 04:14:45 04:16:58 12° 324° (NW) 04:19:11 437.095 MHz 1200 baud AX-25 AFSK
ISS 27 Jul 04:21:01 04:23:11 16° 2° (N) 04:25:21 145.800 FM
Oscar 19 27 Jul 04:34:49 04:37:38 15° 300° (WNW) 04:40:26 437.125 CW, 437.150 USB
AO-Echo 27 Jul 05:08:33 05:11:08 14° 301° (WNW) 05:13:42 ?
OPAL 27 Jul 05:13:43 05:17:57 28° 262° (W) 05:22:12 ?
ITAMSAT 1 27 Jul 05:19:41 05:21:53 13° 302° (WNW) 05:24:06 435.822 SSB
Uosat F 27 Jul 05:22:57 05:27:56 59° 101° (ESE) 05:32:51 435.120 FM
TMSAT-1 27 Jul 05:23:45 05:28:28 34° 293° (WNW) 05:33:11 436.925 FM
Lituanica SAT-1 27 Jul 05:35:45 05:37:39 75° 215° (SW) 05:39:33 437.275 MHz beacon
